Overview Statistics Trail Chart Weather Telemetry Raw packets
 

This is the latest recevied weather packets stored in our database for station/object KN6WGU. If no packets are shown the sender has not sent any weather packets the latest 10 day(s).

<< 70 71 72 73 74 75 76 >>
Time Temp. Humidity Pressure Rain* Wind** Luminosity Snow
1788113100 23.33° C 82% 1013.4 hPa 0 mm - 75 W/m² -
1788112799 23.33° C 81% 1013.6 hPa 0 mm - 77 W/m² -
1788112498 23.89° C 80% 1013.6 hPa 0 mm - 74 W/m² -
1788112193 23.89° C 80% 1013.7 hPa 0 mm - 71 W/m² -
1788111889 23.89° C 79% 1013.7 hPa 0 mm - 73 W/m² -
1788111588 23.89° C 79% 1013.8 hPa 0 mm - 68 W/m² -
1788111280 23.89° C 79% 1013.8 hPa 0 mm - 79 W/m² -
1788110975 24.44° C 78% 1013.9 hPa 0 mm - 94 W/m² -
1788110672 24.44° C 78% 1013.9 hPa 0 mm - 152 W/m² -
1788110367 24.44° C 80% 1013.7 hPa 0 mm - 197 W/m² -
1788110062 25° C 81% 1013.6 hPa 0 mm - 245 W/m² -
1788109757 24.44° C 81% 1013.7 hPa 0 mm - 253 W/m² -
1788109457 23.89° C 81% 1013.8 hPa 0 mm - 214 W/m² -
1788109155 23.89° C 82% 1013.9 hPa 0 mm - 183 W/m² -
1788108851 23.89° C 83% 1014.1 hPa 0 mm - 160 W/m² -
1788108548 23.33° C 84% 1014.1 hPa 0 mm - 173 W/m² -
1788108243 23.33° C 85% 1014.2 hPa 0 mm - 149 W/m² -
1788107939 23.33° C 85% 1014.4 hPa 0 mm - 117 W/m² -
1788107635 22.78° C 84% 1014.4 hPa 0 mm - 107 W/m² -
1788107329 23.33° C 84% 1014.6 hPa 0 mm - 91 W/m² -
1788107026 23.33° C 83% 1014.4 hPa 0 mm - 91 W/m² -
1788106726 23.33° C 83% 1014.4 hPa 0 mm - 88 W/m² -
1788106425 23.33° C 81% 1014.5 hPa 0 mm - 77 W/m² -
1788106121 23.33° C 81% 1014.3 hPa 0 mm - 73 W/m² -
1788105816 23.33° C 80% 1014.6 hPa 0 mm - 105 W/m² -

* Rain latest hour (hover to see other rain measurements)
** Current wind speed in m/s (hover to see current wind gust speed)